STARLINK-2443

Last updated on Sat May 08 2021 00:02:04 GMT+0000 (Coordinated Universal Time)

1 48107U 21027R 21127.58334491 .00033112 00000-0 23954-3 0 9998 2 48107 53.0475 191.7715 0002417 24.5361 266.4744 15.73181707 1770
UTC large
Height (km)
Speed (km/s)
/
Latitude / Longitude
Inclination (degrees)
Orbital Period (minutes)
Azimuth
Elevation
Range (km)
Doppler Factor

Next 0 passes for location: London (51.5072 / 0.1276)

Sorry there are no passes over London.